Location: Lombard
(41.8800°N, 88.0080°W)
Time: 02:56:07
(UTC-05:00)

DX 1 - Pass Details

Date: 11 June 2023
Orbit: 614 x 623 km, 98.3° (Epoch: 29 September)

Event Time Altitude Azimuth Distance (km) Brightness Sun altitude
Rises 22:32:34 0° 28° (NNE) 2,914 ? -17.5°
Reaches altitude 10° 22:35:15 10° 45° (NE) 1,999 ? -17.7°
Enters shadow 22:38:29 21° 93° (E) 1,421 ? -18.0°
